Weather History for Billings, MT

Change the Weather History Date:

Friday, January 11, 2013

  Actual Average Record
Temperature  
Mean Temperature 13 °F 27 °F  
Max Temperature 18 °F 36 °F 68 °F (1953)
Min Temperature 7 °F 17 °F -23 °F (1997)
Degree Days  
Heating Degree Days 52 38  
Month to date heating degree days 380 425  
Since 1 July heating degree days 2921 3246  
Cooling Degree Days 0 0  
Month to date cooling degree days 0 0  
Year to date cooling degree days 0 0  
Moisture  
Dew Point 5 °F    
Average Humidity 83    
Maximum Humidity 92    
Minimum Humidity 73    
Precipitation  
Precipitation 0.36 in 0.01 in 0.40 in (1998)
Month to date precipitation 0.37 0.17  
Year to date precipitation 0.37 0.17  
Snow  
Snow 7.10 in 0.30 in 7.10 in (2013)
Month to date snowfall 7.2 3.1  
Since 1 July snowfall 23.5 23.0  
Snow Depth 2.00 in    
Sea Level Pressure  
Sea Level Pressure 29.96 in    
Wind  
Wind Speed 10 mph (North)    
Max Wind Speed 20 mph    
Max Gust Speed 23 mph    
Visibility 2 miles    
Events Fog , Snow    
T = Trace of Precipitation, MM = Missing Value Source: NWS Daily Summary

Daily Weather History Graph

Daily Weather History Graph

Search for Another Location

Airport:

Trip Planner

Search our weather history database for the weather conditions in past years. The results will help you decide how hot, cold, wet, or windy it might be!

Date:

Astronomy

Jan. 11, 2013 Rise Set
Actual Time 7:53 AM MST 4:51 PM MST
Civil Twilight 7:19 AM MST 5:25 PM MST
Nautical Twilight 6:42 AM MST 6:02 PM MST
Astronomical Twilight 6:06 AM MST 6:38 PM MST
Moon 7:26 AM MST (1/11) 5:16 PM MST (1/11)
Length of Visible Light 10h 05m
Length of Day
8h 58m
Waning Crescent, 0% of the Moon is Illuminated
Jan 11
Waning Crescent
Jan 11
New
Jan 18
First Quarter
Jan 26
Full
Feb 3
Last Quarter

Hourly Weather History & Observations

Time (MST) Temp. Windchill Dew Point Humidity Pressure Visibility Wind Dir Wind Speed Gust Speed Precip Events Conditions
12:53 AM 17.1 °F 3.0 °F 10.0 °F 74% 29.74 in 5.0 mi NNE 13.8 mph - 0.00 in Snow Light Snow
1:53 AM 15.1 °F 2.5 °F 8.1 °F 74% 29.79 in 6.0 mi NNE 10.4 mph - 0.00 in Snow Light Snow
2:37 AM 12.9 °F -2.8 °F 7.0 °F 77% 29.70 in 2.0 mi NNE 15.0 mph - 0.00 in Snow Light Snow
2:53 AM 12.9 °F -2.2 °F 8.1 °F 81% 29.82 in 1.5 mi NNE 13.8 mph - 0.00 in Snow Light Snow
3:22 AM 12.0 °F -2.0 °F 8.1 °F 84% 29.71 in 1.2 mi NNE 11.5 mph - 0.00 in Snow Light Snow
3:44 AM 12.0 °F -0.4 °F 8.1 °F 84% 29.71 in 0.8 mi NNE 9.2 mph - 0.02 in Snow Light Snow
3:53 AM 12.0 °F -0.4 °F 8.1 °F 84% 29.84 in 0.8 mi NE 9.2 mph - 0.03 in Snow Light Snow
4:46 AM 10.9 °F -2.6 °F 8.1 °F 88% 29.71 in 0.8 mi ENE 10.4 mph - 0.03 in Snow Light Snow
4:53 AM 10.9 °F -1.8 °F 8.1 °F 88% 29.86 in 0.8 mi ENE 9.2 mph - 0.03 in Snow Light Snow
6:27 AM 10.0 °F -5.9 °F 6.1 °F 84% 29.75 in 0.8 mi NNE 13.8 mph - 0.01 in Snow Light Snow
6:53 AM 10.0 °F -1.9 °F 7.0 °F 87% 29.91 in 0.8 mi NNE 8.1 mph - 0.02 in Snow Light Snow
6:56 AM 10.0 °F -1.9 °F 7.0 °F 87% 29.76 in 1.0 mi NNE 8.1 mph - 0.00 in Snow Light Snow
7:53 AM 10.0 °F -3.7 °F 6.1 °F 84% 29.95 in 1.0 mi North 10.4 mph - 0.02 in Snow Light Snow
8:53 AM 10.0 °F 1.8 °F 7.0 °F 87% 29.96 in 1.0 mi NW 4.6 mph - 0.02 in Snow Light Snow
9:53 AM 10.9 °F 0.2 °F 6.1 °F 81% 29.94 in 1.0 mi NNE 6.9 mph - 0.02 in Snow Light Snow
10:36 AM 10.9 °F 1.4 °F 6.1 °F 81% 29.82 in 0.8 mi NNE 5.8 mph - 0.01 in Snow Light Snow
10:44 AM 10.9 °F 1.4 °F 7.0 °F 84% 29.82 in 0.5 mi West 5.8 mph - 0.01 in Fog , Snow Snow
10:53 AM 10.9 °F 1.4 °F 5.0 °F 77% 29.99 in 1.0 mi North 5.8 mph - 0.01 in Snow Light Snow
11:15 AM 10.0 °F -2.9 °F 5.0 °F 80% 29.84 in 0.5 mi WNW 9.2 mph - 0.01 in Snow Snow
11:33 AM 10.0 °F -3.7 °F 5.0 °F 80% 29.83 in 1.0 mi NW 10.4 mph - 0.02 in Snow Light Snow
11:39 AM 10.0 °F -4.5 °F 5.0 °F 80% 29.83 in 0.8 mi North 11.5 mph - 0.02 in Snow Light Snow
11:53 AM 10.4 °F -4.1 °F 5.0 °F 79% 29.83 in 0.5 mi North 11.5 mph - N/A Snow Snow
12:10 PM 9.0 °F -5.1 °F 5.0 °F 84% 29.83 in 0.8 mi North 10.4 mph - 0.01 in Snow Light Snow
12:12 PM 9.0 °F -5.1 °F 5.0 °F 84% 29.83 in 1.5 mi North 10.4 mph - 0.01 in Snow Light Snow
12:20 PM 10.0 °F -1.9 °F 5.0 °F 80% 29.83 in 1.5 mi North 8.1 mph - 0.01 in Snow Light Snow
12:24 PM 10.0 °F -3.7 °F 5.0 °F 80% 29.83 in 2.0 mi North 10.4 mph - 0.01 in Snow Light Snow
12:53 PM 10.4 °F -2.4 °F 5.0 °F 79% 29.85 in 1.5 mi North 9.2 mph - N/A Snow Light Snow
1:11 PM 10.0 °F -4.5 °F 5.0 °F 80% 29.86 in 1.0 mi North 11.5 mph - 0.00 in Snow Light Snow
1:53 PM 10.0 °F -3.7 °F 5.0 °F 80% 30.04 in 1.0 mi North 10.4 mph - 0.00 in Snow Light Snow
2:00 PM 10.0 °F -5.2 °F 3.9 °F 76% 29.87 in 0.8 mi North 12.7 mph - 0.00 in Snow Light Snow
2:26 PM 9.0 °F -5.1 °F 5.0 °F 84% 29.88 in 1.0 mi North 10.4 mph - 0.01 in Snow Light Snow
2:53 PM 9.0 °F -6.6 °F 3.9 °F 80% 30.09 in 1.0 mi North 12.7 mph - 0.01 in Snow Light Snow
3:53 PM 9.0 °F -3.2 °F 5.0 °F 84% 30.12 in 0.8 mi NW 8.1 mph - 0.01 in Snow Light Snow
4:25 PM 9.0 °F -0.9 °F 5.0 °F 84% 29.95 in 1.0 mi NNW 5.8 mph - 0.02 in Snow Light Snow
4:35 PM 9.0 °F -0.9 °F 5.0 °F 84% 29.95 in 1.0 mi NNW 5.8 mph - 0.02 in Snow Light Snow
4:53 PM 9.0 °F -0.9 °F 5.0 °F 84% 30.15 in 1.2 mi NNW 5.8 mph - 0.02 in Snow Light Snow
5:15 PM 9.0 °F -3.2 °F 6.1 °F 88% 29.97 in 1.8 mi NNW 8.1 mph - 0.01 in Snow Light Snow
5:53 PM 9.0 °F -8.5 °F 3.9 °F 80% 30.19 in 1.8 mi North 16.1 mph - 0.01 in Snow Light Snow
6:08 PM 9.0 °F -6.6 °F 3.9 °F 80% 30.00 in 1.5 mi North 12.7 mph - 0.01 in Snow Light Snow
6:53 PM 9.0 °F -5.9 °F 5.0 °F 84% 30.22 in 1.5 mi NNW 11.5 mph - 0.02 in Snow Light Snow
7:06 PM 9.0 °F -5.9 °F 3.9 °F 80% 30.03 in 4.0 mi NNW 11.5 mph - 0.00 in Snow Light Snow
7:41 PM 8.1 °F -8.4 °F 3.0 °F 80% 30.03 in 2.5 mi North 13.8 mph - 0.00 in Snow Light Snow
7:53 PM 8.1 °F -7.7 °F 3.0 °F 80% 30.24 in 4.0 mi North 12.7 mph - 0.00 in Snow Light Snow
8:11 PM 8.1 °F -9.0 °F 3.0 °F 80% 30.04 in 2.5 mi NNW 15.0 mph - 0.00 in Snow Light Snow
8:53 PM 8.1 °F -9.0 °F 3.9 °F 83% 30.25 in 2.0 mi NNW 15.0 mph - 0.00 in Snow Light Snow
9:05 PM 8.1 °F -7.0 °F 3.9 °F 83% 30.05 in 1.8 mi NNW 11.5 mph - 0.00 in Snow Light Snow
9:32 PM 9.0 °F -3.2 °F 3.9 °F 80% 30.05 in 3.0 mi NW 8.1 mph - 0.01 in Snow Light Snow
9:53 PM 8.1 °F -4.3 °F 3.9 °F 83% 30.25 in 2.0 mi WNW 8.1 mph - 0.02 in Snow Light Snow
10:53 PM 7.0 °F -5.7 °F 3.0 °F 84% 30.26 in 3.0 mi WNW 8.1 mph - 0.01 in Snow Light Snow
11:03 PM 7.0 °F -5.7 °F 3.0 °F 84% 30.06 in 2.0 mi West 8.1 mph - 0.00 in Snow Light Snow
11:53 PM 7.0 °F -3.3 °F 3.9 °F 87% 30.27 in 2.0 mi WSW 5.8 mph - 0.01 in Snow Light Snow